Location: Madrid
(40.4168°N, 3.7038°W)
Time: 05:54:01
(UTC+02:00)

Mayak - Visible Passes

Search period start: 19 August 2017 00:00
Search period end: 29 August 2017 00:00
Orbit: 585 x 607 km, 97.6° (Epoch: 17 August)

Date Brightness Start Highest point End Pass type
(mag) Time Alt. Az. Time Alt. Az. Time Alt. Az.
19 Aug 1.8 02:01:51 10° NNE 02:02:20 13° NNE 02:02:20 13° NNE visible
20 Aug 1.8 02:11:39 10° N 02:12:08 13° N 02:12:08 13° N visible
21 Aug 1.8 02:21:28 10° N 02:21:55 13° N 02:21:55 13° N visible
22 Aug 1.9 02:31:21 10° N 02:31:42 12° N 02:31:42 12° N visible
23 Aug 1.9 02:41:16 10° N 02:41:30 11° N 02:41:30 11° N visible
24 Aug 2.0 02:51:14 10° NNW 02:51:17 10° NNW 02:51:17 10° NNW visible
